Location: Dillon
(41.1766°N, 107.0923°W)
Time: 23:29:07
(UTC+00:00)

QB50P2 - Pass Details

Date: 02 July 2022
Orbit: 590 x 605 km, 97.9° (Epoch: 18 August)

Event Time Altitude Azimuth Distance (km) Brightness Sun altitude
Rises 09:55:51 0° 351° (N) 2,861 ? -15.5°
Reaches altitude 10° 09:59:14 10° 322° (NW) 1,955 ? -15.1°
Maximum altitude 10:00:57 12° 297° (WNW) 1,804 ? -14.9°
Drops below altitude 10° 10:02:41 10° 273° (W) 1,952 ? -14.6°
Enters shadow 10:02:42 10° 273° (W) 1,955 ? -14.6°
